Regional Weather Roundup
Issued by NWS

Home | Current Version | Previous Version | Text Only | Print | Product List | Glossary On
Versions: 1 2 3 4 5 6 7 8 9 10 11 12 13 14 15 16 17 18 19 20 21 22 23 24 25 26 27 28 29 30 31 32 33 34 35 36 37 38 39 40 41 42 43 44 45 46 47 48 49 50
000
ASUS43 KOAX 222302
RWRNE

WEATHER ROUNDUP FOR NEBRASKA
NATIONAL WEATHER SERVICE OMAHA NE
600 PM CDT TUE AUG 22 2017

NOTES: SATELLITE DATA IS BEING USED TO AUGMENT CLOUD COVER ABOVE
       12000 FEET.
       "FAIR" INDICATES FEW OR NO CLOUDS BELOW 12,000 FEET WITH NO
       SIGNIFICANT WEATHER AND/OR OBSTRUCTIONS TO VISIBILITY.


NEZ001>004-019>022-054>056-230000-
NEBRASKA PANHANDLE

CITY           SKY/WX    TMP DP  RH WIND       PRES   REMARKS
SCOTTSBLUFF    SUNNY     85  48  27 SE15      30.16F
ALLIANCE       SUNNY     79  47  32 S17G24    30.19F
CHADRON        SUNNY     84  46  26 S14G24    30.12F
GORDON         FAIR      82  43  24 S10       30.17F
KIMBALL        SUNNY     81  50  34 S21G26    30.23F
SIDNEY         SUNNY     81  48  31 S18       30.23F
$$

NEZ057>060-069>072-079>082-230000-
SOUTHWEST NEBRASKA

CITY           SKY/WX    TMP DP  RH WIND       PRES   REMARKS
NORTH PLATTE   SUNNY     79  55  43 SE9       30.20F
IMPERIAL       SUNNY     81  45  28 S12       30.21F
LEXINGTON      SUNNY     77  52  41 CALM      30.21F
MCCOOK         SUNNY     80  50  34 SE6       30.20F
OGALLALA       SUNNY     80  48  32 S8G16     30.21F
$$

NEZ005>010-023>029-035>040-094-230000-
NORTH CENTRAL NEBRASKA

CITY           SKY/WX    TMP DP  RH WIND       PRES   REMARKS
VALENTINE      SUNNY     82  44  26 S5        30.17F
AINSWORTH      SUNNY     75  54  47 E6        30.19F
BROKEN BOW     SUNNY     79  48  33 E5        30.20F
O`NEILL        SUNNY     75  51  43 W5        30.19F
ORD            SUNNY     76  47  35 S5        30.18F
THEDFORD       SUNNY     80  47  31 SE5       30.20F
$$

NEZ041-046>049-061>064-073>077-083>087-230000-
SOUTH CENTRAL NEBRASKA

CITY           SKY/WX    TMP DP  RH WIND       PRES   REMARKS
GRAND ISLAND   SUNNY     76  50  40 N6        30.20F
AURORA         SUNNY     74  52  46 NE3       30.19F
HASTINGS       SUNNY     76  50  40 N3        30.21F
HEBRON         SUNNY     78  47  33 N13       30.17S
HOLDREGE       SUNNY     74  51  44 CALM      30.21F
KEARNEY        SUNNY     75  52  44 VRB6      30.21F
$$

NEZ011>018-030>034-042>045-230000-
NORTHEAST NEBRASKA

CITY           SKY/WX    TMP DP  RH WIND       PRES   REMARKS
NORFOLK        SUNNY     74  51  44 NW9       30.16F
ALBION         SUNNY     75  52  45 N3        30.19F
BLAIR          SUNNY     74  51  44 NW8       30.16S
COLUMBUS       SUNNY     73  55  53 N7        30.18
FREMONT        SUNNY     74  48  39 N7        30.17S
TEKAMAH        SUNNY     75  50  41 NW7       30.15S
WAYNE          SUNNY     73  47  39 N8        30.17S
$$

NEZ050>053-065>068-078-088>093-230000-
SOUTHEAST NEBRASKA

CITY           SKY/WX    TMP DP  RH WIND       PRES   REMARKS
LINCOLN        SUNNY     77  52  41 N10       30.17F
OMAHA EPPLEY   MOSUNNY   76  50  40 NW10      30.14F
BEATRICE       SUNNY     76  54  46 N12       30.15F
FALLS CITY     SUNNY     75  51  43 N12G22    30.12S
NEBRASKA CITY  SUNNY     74  52  45 N7        30.14F
$$

NEZ044-045-051>053-067-230000-
OMAHA AREA

CITY           SKY/WX    TMP DP  RH WIND       PRES   REMARKS
OMAHA EPPLEY   MOSUNNY   76  50  40 NW10      30.14F
BLAIR          SUNNY     74  51  44 NW8       30.16S
FREMONT        SUNNY     74  48  39 N7        30.17S
MILLARD        SUNNY     76  51  40 NW6       30.15S
OFFUTT AFB     SUNNY     77  48  36 NW10      30.14S
WAHOO          FAIR      74  53  48 N7        30.16F
$$




USA.gov is the U.S. government's official web portal to all federal, state and local government web resources and services.